ASA42 PAKT-PAWG

Flight info

Callsign ASA42
Flight time 0h 19m
Altitude 15000
Route DOOZI2 LVD
Aircraft B38M/M-SDE1FGHILORVWXY/HB1

Departure

Time 2026-04-25 11:34
Airport Ketchikan International Airport (PAKT)

Arrival

Time 2026-04-25 11:54
Airport Wrangell Airport (PAWG)
Time Latitude Longitude Altitude Speed Heading
2026-04-25 11:19 55.35659 -131.71034 44 ft 0 kts 45°
2026-04-25 11:27 55.35650 -131.71051 43 ft 3 kts 49°
2026-04-25 11:27 55.35637 -131.71076 39 ft 3 kts 50°
2026-04-25 11:27 55.35629 -131.71095 41 ft 3 kts 56°
2026-04-25 11:28 55.35617 -131.71136 44 ft 3 kts 73°
2026-04-25 11:28 55.35613 -131.71170 44 ft 2 kts 87°
2026-04-25 11:28 55.35612 -131.71178 44 ft 1 kts 89°
2026-04-25 11:30 55.35609 -131.71163 44 ft 3 kts 119°
2026-04-25 11:31 55.35580 -131.71106 44 ft 12 kts 134°
2026-04-25 11:31 55.35489 -131.70948 44 ft 23 kts 136°
2026-04-25 11:31 55.35375 -131.70753 50 ft 20 kts 136°
2026-04-25 11:31 55.35293 -131.70610 66 ft 13 kts 135°
2026-04-25 11:32 55.35245 -131.70531 72 ft 6 kts 138°
2026-04-25 11:32 55.35214 -131.70484 86 ft 6 kts 140°
2026-04-25 11:32 55.35160 -131.70399 92 ft 16 kts 137°
2026-04-25 11:32 55.35051 -131.70221 101 ft 27 kts 136°
2026-04-25 11:33 55.34929 -131.70041 102 ft 17 kts 158°
2026-04-25 11:33 55.34841 -131.70086 102 ft 7 kts 225°
2026-04-25 11:33 55.34847 -131.70160 102 ft 8 kts 319°
2026-04-25 11:33 55.34894 -131.70238 101 ft 11 kts 315°
2026-04-25 11:34 55.34984 -131.70395 103 ft 27 kts 315°
2026-04-25 11:34 55.35198 -131.70760 101 ft 76 kts 315°
2026-04-25 11:34 55.35774 -131.71753 122 ft 149 kts 315°
2026-04-25 11:34 55.36504 -131.73199 828 ft 164 kts 310°
2026-04-25 11:35 55.37285 -131.74661 1881 ft 164 kts 317°
2026-04-25 11:35 55.38138 -131.76120 2520 ft 182 kts 317°
2026-04-25 11:35 55.39128 -131.77813 3039 ft 219 kts 318°
2026-04-25 11:35 55.40286 -131.79729 4000 ft 226 kts 318°
2026-04-25 11:36 55.41377 -131.81614 5423 ft 224 kts 316°
2026-04-25 11:36 55.42552 -131.83633 6202 ft 244 kts 317°
2026-04-25 11:36 55.43819 -131.85764 7068 ft 260 kts 317°
2026-04-25 11:36 55.45154 -131.88011 8023 ft 268 kts 317°
2026-04-25 11:37 55.46504 -131.90305 9127 ft 272 kts 317°
2026-04-25 11:37 55.47877 -131.92657 10183 ft 278 kts 316°
2026-04-25 11:37 55.49297 -131.95119 10816 ft 298 kts 316°
2026-04-25 11:37 55.50822 -131.97769 10885 ft 313 kts 316°
2026-04-25 11:38 55.52395 -132.00504 10936 ft 325 kts 316°
2026-04-25 11:38 55.54024 -132.03339 10954 ft 332 kts 316°
2026-04-25 11:38 55.55768 -132.06048 10995 ft 335 kts 320°
2026-04-25 11:38 55.57539 -132.08727 11014 ft 336 kts 320°
2026-04-25 11:39 55.59310 -132.11431 11020 ft 336 kts 320°
2026-04-25 11:39 55.61075 -132.14139 11021 ft 336 kts 319°
2026-04-25 11:39 55.62926 -132.16653 11006 ft 335 kts 332°
2026-04-25 11:39 55.65133 -132.17916 11024 ft 336 kts 349°
2026-04-25 11:40 55.67439 -132.18686 11021 ft 338 kts 348°
2026-04-25 11:40 55.69717 -132.19446 11022 ft 338 kts 348°
2026-04-25 11:40 55.72034 -132.20197 11021 ft 338 kts 349°
2026-04-25 11:40 55.74350 -132.20932 11020 ft 338 kts 349°
2026-04-25 11:41 55.76668 -132.21661 11026 ft 338 kts 349°
2026-04-25 11:41 55.78985 -132.22387 11026 ft 338 kts 349°
2026-04-25 11:41 55.81305 -132.23116 11025 ft 336 kts 349°
2026-04-25 11:41 55.83560 -132.23824 11029 ft 321 kts 349°
2026-04-25 11:42 55.85711 -132.24501 11028 ft 306 kts 349°
2026-04-25 11:42 55.87762 -132.25147 10964 ft 294 kts 349°
2026-04-25 11:42 55.89750 -132.25774 10821 ft 286 kts 349°
2026-04-25 11:42 55.91693 -132.26388 10554 ft 282 kts 349°
2026-04-25 11:43 55.93617 -132.26996 10310 ft 278 kts 349°
2026-04-25 11:43 55.95494 -132.27590 10165 ft 270 kts 348°
2026-04-25 11:43 55.97313 -132.28168 10010 ft 262 kts 348°
2026-04-25 11:43 55.99091 -132.28733 9745 ft 258 kts 348°
2026-04-25 11:44 56.00858 -132.29293 9436 ft 257 kts 348°
2026-04-25 11:44 56.02609 -132.29848 9155 ft 255 kts 348°
2026-04-25 11:44 56.04348 -132.30401 8878 ft 252 kts 348°
2026-04-25 11:44 56.06069 -132.30950 8600 ft 250 kts 348°
2026-04-25 11:45 56.07780 -132.31493 8311 ft 249 kts 348°
2026-04-25 11:45 56.09483 -132.32036 8009 ft 248 kts 348°
2026-04-25 11:45 56.11176 -132.32575 7730 ft 246 kts 348°
2026-04-25 11:45 56.12852 -132.33110 7465 ft 244 kts 348°
2026-04-25 11:46 56.14541 -132.33650 7230 ft 250 kts 348°
2026-04-25 11:46 56.16269 -132.34203 6932 ft 254 kts 348°
2026-04-25 11:46 56.18009 -132.34761 6643 ft 254 kts 349°
2026-04-25 11:46 56.19747 -132.35318 6330 ft 253 kts 348°
2026-04-25 11:47 56.21462 -132.35873 6151 ft 246 kts 348°
2026-04-25 11:47 56.23108 -132.36453 6073 ft 236 kts 348°
2026-04-25 11:47 56.24674 -132.37110 5788 ft 231 kts 348°
2026-04-25 11:47 56.26278 -132.37646 5392 ft 235 kts 348°
2026-04-25 11:48 56.27928 -132.38054 4913 ft 242 kts 356°
2026-04-25 11:48 56.29576 -132.37944 4787 ft 232 kts
2026-04-25 11:48 56.31136 -132.37309 4538 ft 229 kts 17°
2026-04-25 11:48 56.32578 -132.36122 4244 ft 228 kts 27°
2026-04-25 11:49 56.33847 -132.34534 4170 ft 217 kts 37°
2026-04-25 11:49 56.34908 -132.32641 3929 ft 213 kts 44°
2026-04-25 11:49 56.35899 -132.30681 3516 ft 214 kts 46°
2026-04-25 11:49 56.36893 -132.28736 3214 ft 206 kts 44°
2026-04-25 11:50 56.37907 -132.26968 2830 ft 200 kts 41°
2026-04-25 11:50 56.38915 -132.25344 2661 ft 185 kts 39°
2026-04-25 11:50 56.39831 -132.23967 2503 ft 163 kts 36°
2026-04-25 11:50 56.40750 -132.22916 2198 ft 154 kts 24°
2026-04-25 11:51 56.41788 -132.22296 1964 ft 162 kts
2026-04-25 11:51 56.42891 -132.22158 1944 ft 160 kts 356°
2026-04-25 11:51 56.44006 -132.22607 1722 ft 168 kts 338°
2026-04-25 11:51 56.45044 -132.23596 1560 ft 171 kts 326°
2026-04-25 11:52 56.45927 -132.24996 1329 ft 168 kts 311°
2026-04-25 11:52 56.46558 -132.26670 1030 ft 157 kts 295°
2026-04-25 11:52 56.46935 -132.28488 638 ft 153 kts 285°
2026-04-25 11:52 56.47150 -132.30334 376 ft 140 kts 276°
2026-04-25 11:53 56.47258 -132.31997 388 ft 133 kts 279°
2026-04-25 11:53 56.47490 -132.33639 325 ft 138 kts 285°
2026-04-25 11:53 56.47835 -132.35197 142 ft 130 kts 297°
2026-04-25 11:53 56.48263 -132.36501 31 ft 102 kts 301°
2026-04-25 11:54 56.48507 -132.37217 32 ft 51 kts 302°
2026-04-25 11:54 56.48648 -132.37638 29 ft 28 kts 301°
2026-04-25 11:54 56.48581 -132.37920 31 ft 7 kts 179°
2026-04-25 11:55 56.48547 -132.37856 31 ft 9 kts 127°
2026-04-25 11:55 56.48501 -132.37760 31 ft 3 kts 134°
2026-04-25 11:55 56.48497 -132.37755 31 ft 3 kts 147°
2026-04-25 11:55 56.48488 -132.37805 31 ft 6 kts 324°
2026-04-25 11:56 56.48511 -132.37848 31 ft 8 kts 306°
2026-04-25 11:56 56.48538 -132.37924 31 ft 0 kts 302°